TimeCDT,TemperatureF,Dew PointF,Humidity,Sea Level PressureIn,VisibilityMPH,Wind Direction,Wind SpeedMPH,Gust SpeedMPH,PrecipitationIn,Events,Conditions,WindDirDegrees,DateUTC
12:15 AM,59.0,51.8,77,29.97,10.0,ENE,3.5,-,N/A,,Clear,70,2013-09-30 05:15:00
12:35 AM,59.0,51.8,77,29.97,10.0,Calm,Calm,-,N/A,,Clear,0,2013-09-30 05:35:00
12:55 AM,59.0,51.8,77,29.96,10.0,Calm,Calm,-,N/A,,Clear,0,2013-09-30 05:55:00
1:15 AM,59.0,53.6,82,29.96,10.0,East,3.5,-,N/A,,Clear,90,2013-09-30 06:15:00
1:35 AM,59.0,53.6,82,29.97,10.0,East,3.5,-,N/A,,Clear,90,2013-09-30 06:35:00
1:55 AM,60.8,53.6,77,29.96,10.0,East,3.5,-,N/A,,Scattered Clouds,80,2013-09-30 06:55:00
2:15 AM,59.0,53.6,82,29.96,10.0,East,6.9,-,N/A,,Mostly Cloudy,90,2013-09-30 07:15:00
2:35 AM,59.0,53.6,82,29.95,10.0,East,3.5,-,N/A,,Clear,80,2013-09-30 07:35:00
2:55 AM,59.0,53.6,82,29.95,10.0,Calm,Calm,-,N/A,,Clear,0,2013-09-30 07:55:00
3:15 AM,59.0,53.6,82,29.94,10.0,East,5.8,-,N/A,,Partly Cloudy,100,2013-09-30 08:15:00
3:35 AM,57.2,53.6,88,29.94,10.0,East,4.6,-,N/A,,Clear,100,2013-09-30 08:35:00
3:55 AM,57.2,53.6,88,29.93,9.0,ESE,3.5,-,N/A,,Clear,110,2013-09-30 08:55:00
4:15 AM,57.2,51.8,82,29.93,8.0,Calm,Calm,-,N/A,,Clear,0,2013-09-30 09:15:00
4:35 AM,57.2,53.6,88,29.94,7.0,Calm,Calm,-,N/A,,Clear,0,2013-09-30 09:35:00
4:55 AM,57.2,51.8,82,29.94,5.0,East,4.6,-,N/A,,Clear,80,2013-09-30 09:55:00
5:15 AM,57.2,51.8,82,29.94,0.8,Calm,Calm,-,N/A,,Overcast,0,2013-09-30 10:15:00
5:55 AM,57.2,51.8,82,29.95,0.2,ENE,3.5,-,N/A,,Overcast,60,2013-09-30 10:55:00
6:15 AM,57.2,51.8,82,29.95,1.0,Calm,Calm,-,N/A,,Overcast,0,2013-09-30 11:15:00
6:55 AM,59.0,53.6,82,29.96,8.0,Calm,Calm,-,N/A,,Overcast,0,2013-09-30 11:55:00
7:15 AM,60.8,53.6,77,29.97,7.0,Calm,Calm,-,N/A,,Overcast,0,2013-09-30 12:15:00
7:36 AM,60.8,55.4,82,29.96,8.0,East,4.6,-,N/A,,Overcast,80,2013-09-30 12:36:00
7:55 AM,60.8,55.4,82,29.96,7.0,ESE,3.5,-,N/A,,Overcast,120,2013-09-30 12:55:00
8:15 AM,60.8,55.4,82,29.95,8.0,ESE,4.6,-,N/A,,Scattered Clouds,120,2013-09-30 13:15:00
8:35 AM,-9999,-9999,N/A,-9999,10.0,North,-9999.0,-,N/A,,Mostly Cloudy,0,2013-09-30 13:35:00
8:55 AM,62.6,57.2,82,29.96,10.0,NE,3.5,-,N/A,,Mostly Cloudy,50,2013-09-30 13:55:00
9:15 AM,64.4,59.0,83,29.96,10.0,Calm,Calm,-,N/A,,Overcast,0,2013-09-30 14:15:00
9:36 AM,66.2,60.8,83,29.96,10.0,Calm,Calm,-,N/A,,Overcast,0,2013-09-30 14:36:00
9:55 AM,66.2,60.8,83,29.96,10.0,Calm,Calm,-,N/A,,Mostly Cloudy,0,2013-09-30 14:55:00
10:15 AM,69.8,60.8,73,29.96,10.0,Calm,Calm,-,N/A,,Mostly Cloudy,0,2013-09-30 15:15:00
10:35 AM,71.6,62.6,73,29.96,10.0,Calm,Calm,-,N/A,,Overcast,0,2013-09-30 15:35:00
10:55 AM,73.4,60.8,65,29.95,10.0,SW,8.1,-,N/A,,Mostly Cloudy,220,2013-09-30 15:55:00
11:15 AM,73.4,60.8,65,29.95,8.0,SSW,10.4,-,0.04,,Mostly Cloudy,200,2013-09-30 16:15:00
11:55 AM,77.0,60.8,57,29.95,10.0,SSW,12.7,-,0.04,,Mostly Cloudy,210,2013-09-30 16:55:00
12:35 PM,-9999,-9999,N/A,-9999,-9999.0,North,-9999.0,-,N/A,,Unknown,0,2013-09-30 17:35:00
12:55 PM,78.8,60.8,54,29.94,10.0,SSW,10.4,-,N/A,,Unknown,210,2013-09-30 17:55:00
1:15 PM,78.8,59.0,51,29.93,10.0,SW,10.4,-,N/A,,Clear,230,2013-09-30 18:15:00
1:35 PM,78.8,60.8,54,29.92,10.0,South,12.7,-,N/A,,Partly Cloudy,190,2013-09-30 18:35:00
1:55 PM,78.8,60.8,54,29.91,10.0,South,9.2,-,N/A,,Partly Cloudy,190,2013-09-30 18:55:00
2:15 PM,80.6,59.0,48,29.89,10.0,SSW,10.4,16.1,N/A,,Partly Cloudy,210,2013-09-30 19:15:00
2:35 PM,80.6,59.0,48,29.90,10.0,South,9.2,-,N/A,,Partly Cloudy,170,2013-09-30 19:35:00
2:55 PM,78.8,60.8,54,29.90,10.0,South,8.1,-,N/A,,Scattered Clouds,180,2013-09-30 19:55:00
3:35 PM,80.6,60.8,51,29.89,10.0,SW,10.4,-,N/A,,Partly Cloudy,220,2013-09-30 20:35:00
3:55 PM,80.6,60.8,51,29.89,10.0,SSW,10.4,-,N/A,,Partly Cloudy,200,2013-09-30 20:55:00
4:35 PM,80.6,60.8,51,29.88,10.0,SSW,10.4,-,N/A,,Partly Cloudy,210,2013-09-30 21:35:00
4:55 PM,80.6,60.8,51,29.89,10.0,SSW,11.5,17.3,N/A,,Mostly Cloudy,210,2013-09-30 21:55:00
5:15 PM,80.6,60.8,51,29.88,10.0,SSW,9.2,-,N/A,,Partly Cloudy,200,2013-09-30 22:15:00
5:35 PM,78.8,60.8,54,29.89,10.0,SSW,11.5,-,N/A,,Mostly Cloudy,200,2013-09-30 22:35:00
5:55 PM,77.0,60.8,57,29.89,10.0,South,9.2,-,N/A,,Mostly Cloudy,190,2013-09-30 22:55:00
6:15 PM,77.0,60.8,57,29.89,10.0,South,10.4,-,N/A,,Overcast,180,2013-09-30 23:15:00
6:35 PM,75.2,60.8,61,29.89,10.0,South,5.8,-,N/A,,Overcast,170,2013-09-30 23:35:00
7:15 PM,71.6,60.8,69,29.89,10.0,SSE,4.6,-,N/A,,Partly Cloudy,160,2013-10-01 00:15:00
7:35 PM,71.6,60.8,69,29.89,10.0,SSE,5.8,-,N/A,,Clear,150,2013-10-01 00:35:00
7:55 PM,69.8,60.8,73,29.90,10.0,SSE,5.8,-,N/A,,Clear,150,2013-10-01 00:55:00
8:15 PM,69.8,60.8,73,29.91,10.0,SSE,4.6,-,N/A,,Clear,150,2013-10-01 01:15:00
8:35 PM,69.8,60.8,73,29.91,10.0,SSE,5.8,-,N/A,,Clear,150,2013-10-01 01:35:00
8:55 PM,68.0,60.8,78,29.92,10.0,SSE,4.6,-,N/A,,Scattered Clouds,150,2013-10-01 01:55:00
9:15 PM,69.8,60.8,73,29.92,10.0,SSE,5.8,-,N/A,,Overcast,150,2013-10-01 02:15:00
9:55 PM,68.0,60.8,78,29.92,10.0,SSE,5.8,-,N/A,,Partly Cloudy,160,2013-10-01 02:55:00
10:15 PM,66.2,60.8,83,29.92,10.0,SSE,5.8,-,N/A,,Clear,160,2013-10-01 03:15:00
10:55 PM,66.2,60.8,83,29.93,10.0,SSE,6.9,-,N/A,,Partly Cloudy,160,2013-10-01 03:55:00
11:15 PM,66.2,60.8,83,29.93,10.0,SSE,5.8,-,N/A,,Partly Cloudy,160,2013-10-01 04:15:00
11:55 PM,66.2,60.8,83,29.93,10.0,South,4.6,-,N/A,,Partly Cloudy,170,2013-10-01 04:55:00